This demonstration page uses our WeatherBlox Daily Observations layout. Learn more.

41.55636, -103.73856

Hourly Observations for January 26, 2018

Temp ( °F °C ) Dew Point ( °F °C ) Humidity (%) Winds ( mph kmh ) Pressure ( in mb ) Visibility ( mi km ) Precip ( " mm )
12:53 am 00:53 Clear 29 -1.7 21 -6.1 72 72 WNW 7 11 29.71 1006 10 16.09344 0 0
1:53 am 01:53 Clear 38 3.3 23 -5 55 55 WNW 28 44 29.68 1005 10 16.09344 0 0
2:53 am 02:53 Clear 33 0.6 23 -5 66 66 WNW 21 33 29.71 1006 10 16.09344 0 0
3:53 am 03:53 Clear 35 1.7 24 -4.4 64 64 WNW 18 30 29.74 1007 10 16.09344 0 0
4:53 am 04:53 Clear 34 1.1 24 -4.4 67 67 WNW 13 20 29.77 1008 10 16.09344 0 0
5:53 am 05:53 Clear 33 0.6 23 -5 66 66 WNW 15 24 29.85 1011 10 16.09344 0 0
6:53 am 06:53 Mostly Clear 31 -0.6 23 -5 72 72 WNW 14 22 29.88 1012 10 16.09344 0 0
7:53 am 07:53 Cloudy 31 -0.6 24 -4.4 76 76 WNW 10 17 29.94 1014 10 16.09344 0 0
8:53 am 08:53 Cloudy 33 0.6 25 -3.9 72 72 WNW 12 19 30 1016 10 16.09344 0 0
9:53 am 09:53 Cloudy 36 2.2 27 -2.8 70 70 WNW 21 33 30 1016 10 16.09344 0 0
10:53 am 10:53 Sunny 36 2.2 26 -3.3 67 67 WNW 15 24 30.03 1017 10 16.09344 0 0
11:53 am 11:53 Mostly Sunny 37 2.8 28 -2.2 70 70 W 17 28 30.03 1017 10 16.09344 0 0
12:53 pm 12:53 Sunny 38 3.3 25 -3.9 60 60 W 17 28 30.03 1017 10 16.09344 0 0
1:53 pm 13:53 Sunny 39 3.9 22 -5.6 50 50 W 16 26 30 1016 10 16.09344 0 0
2:53 pm 14:53 Sunny 39 3.9 21 -6.1 48 48 W 15 24 30.03 1017 10 16.09344 0 0
3:53 pm 15:53 Sunny 38 3.3 21 -6.1 51 51 WNW 15 24 30.06 1018 10 16.09344 0 0
4:53 pm 16:53 Sunny 34 1.1 21 -6.1 59 59 WNW 9 15 30.09 1019 10 16.09344 0 0
5:53 pm 17:53 Clear 31 -0.6 20 -6.7 64 64 WNW 5 7 30.15 1021 10 16.09344 0 0
6:53 pm 18:53 Clear 26 -3.3 19 -7.2 75 75 W 7 11 30.18 1022 10 16.09344 0 0
7:53 pm 19:53 Clear 29 -1.7 17 -8.3 61 61 W 13 20 30.18 1022 10 16.09344 0 0
8:53 pm 20:53 Clear 28 -2.2 18 -7.8 66 66 W 8 13 30.21 1023 10 16.09344 0 0
9:53 pm 21:53 Clear 23 -5 16 -8.9 74 74 WNW 7 11 30.21 1023 10 16.09344 0 0
10:53 pm 22:53 Clear 20 -6.7 15 -9.4 81 81 NW 7 11 30.24 1024 10 16.09344 0 0
11:53 pm 23:53 Clear 19 -7.2 14 -10 81 81 WNW 6 9 30.24 1024 10 16.09344 0 0

Powered by AerisWeather